Location: Praha
(50.0830°N, 14.4670°E)
Time: 16:23:55
(UTC+02:00)

ISS - Pass Details

Date: 19 May 2020
Orbit: 417 x 420 km, 51.6° (Epoch: 25 May)

Event Time Altitude Azimuth Distance (km) Brightness Sun altitude
Rises 00:40:24 0° 280° (W) 2,368 0.3 -20.0°
Reaches altitude 10° 00:42:30 10° 283° (WNW) 1,504 -0.8 -20.0°
Maximum altitude 00:45:52 70° 8° (N) 451 -3.5 -20.0°
Enters shadow 00:47:37 26° 87° (E) 869 -2.2 -20.1°
